Torna al catalogo

STARLINK-6364

AttivoComunicazioniVLEO
NORAD 57378·PAYLOAD·🇺🇸 United States

Lanciato Jul 16, 2023 da Cape Canaveral Space Force Station

Loading…

Prossimi Passaggi (prossime 24 ore)

TLE

AggiornatoSource: CelesTrak SupGP

Epoca: Sep 14, 2026, 22:01 UTC

1 57378C 23099BC  26257.91784722  .00010851  00000+0  39308-3 0  2572
2 57378  43.0028 223.7951 0001366 267.8398 212.1543 15.27567964    18

Traccia STARLINK-6364 in tempo reale con AllMySat

Download on the App Store